Back to catalog

FENGYUN 1C DEB

AliveSSO
NORAD 29929·DEBRIS·🇨🇳 China

Launched May 10, 1999 from Taiyuan Satellite Launch Center

Loading…

Next Passes (next 24 hours)

TLE

FreshSource: Space-Track

Epoch: Sep 14, 2026, 05:43 UTC

1 29929U 99025JB  26257.23872588  .00000871  00000-0  54948-3 0  9990
2 29929  98.6197 166.7847 0131020 124.0362  27.3194 14.02440441998160

Track FENGYUN 1C DEB in real time with AllMySat

Download on the App Store